Location: Bishopstone
(51.0167°N, 1.9000°W)
Time: 09:48:01
(UTC+00:00)

Nadezhda 1 Rocket - Pass Details

Date: 16 September 2019
Orbit: 942 x 1005 km, 83.0° (Epoch: 19 October)

Event Time Altitude Azimuth Distance (km) Brightness Sun altitude
Rises 18:41:05 0° 159° (SSE) 3,600 6.7 -4.1°
Reaches altitude 10° 18:43:45 10° 150° (SSE) 2,656 5.9 -4.5°
Maximum altitude 18:49:10 36° 87° (E) 1,468 4.5 -5.3°
Drops below altitude 10° 18:54:37 10° 24° (NNE) 2,677 6.2 -6.2°
Sets 18:57:18 0° 16° (NNE) 3,631 7.0 -6.6°
